Location: Milevsko
(49.4500°N, 14.3670°E)
Time: 10:10:26
(UTC+02:00)

ISS - Pass Details

Date: 28 June 2022
Orbit: 415 x 421 km, 51.6° (Epoch: 25 June)

Event Time Altitude Azimuth Distance (km) Brightness Sun altitude
Exits shadow 02:42:24 - 136° (SE) 2,138 -0.4 -14.1°
Enters shadow 03:39:58 -72° 245° (WSW) 12,579 3.6 -9.6°
Maximum altitude 04:19:22 25° 143° (SE) 930 -2.1 -5.5°
